When you browse on this site, cookies collect data to enhance your experience and personalize the content and advertising you see.
Visit our Privacy Policy to learn more. By continuing to use the site, you agree to this use of cookies and data.
  • In Österreich
  • Länderverzeichnis
  • Für 7 Tage
  • Wassertemperatur
  • Satellitenkarten
  • Wetterkarte
  • News
  • Widgets
  • user-avatar
    Anmelden

    Stündliche Wetter Samsonovo

    Heute, 19 April, Freitag

    Zeit Temperatur Niederschläge Wind Luftdruck Luftfeuchtigkeit
    00:00 +5°C° 0 mm 2 m/S 764 mmHg 72%
    01:00 +4°C° 0 mm 2 m/S 764 mmHg 75%
    02:00 +5°C° 0 mm 1 m/S 764 mmHg 78%
    03:00 +4°C° 0 mm 1 m/S 765 mmHg 81%
    04:00 +4°C° 0 mm 1 m/S 765 mmHg 84%
    05:00 +3°C° 0 mm 1 m/S 765 mmHg 86%
    06:00 +5°C° 0 mm 1 m/S 765 mmHg 78%
    07:00 +7°C° 0 mm 1 m/S 765 mmHg 70%
    08:00 +9°C° 0 mm 1 m/S 765 mmHg 62%
    09:00 +11°C° 0 mm 1 m/S 765 mmHg 55%
    10:00 +12°C° 0 mm 1 m/S 765 mmHg 48%
    11:00 +14°C° 0 mm 1 m/S 765 mmHg 41%
    12:00 +14°C° 0 mm 1 m/S 764 mmHg 38%
    13:00 +15°C° 0 mm 1 m/S 764 mmHg 35%
    14:00 +15°C° 0 mm 2 m/S 763 mmHg 32%
    15:00 +15°C° 0 mm 2 m/S 763 mmHg 33%
    16:00 +15°C° 0 mm 2 m/S 762 mmHg 34%
    17:00 +15°C° 0 mm 2 m/S 762 mmHg 35%
    18:00 +13°C° 0 mm 1 m/S 762 mmHg 40%
    19:00 +12°C° 0 mm 1 m/S 762 mmHg 45%
    20:00 +10°C° 0 mm 1 m/S 761 mmHg 49%
    21:00 +10°C° 0 mm 1 m/S 761 mmHg 52%
    22:00 +10°C° 0 mm 1 m/S 761 mmHg 55%
    23:00 +8°C° 0 mm 2 m/S 761 mmHg 58%

    Morgen, 20 April, Samstag

    Zeit Temperatur Niederschläge Wind Luftdruck Luftfeuchtigkeit
    00:00 +8°C° 0 mm 2 m/S 761 mmHg 64%
    01:00 +8°C° 0 mm 2 m/S 761 mmHg 69%
    02:00 +8°C° 0 mm 2 m/S 761 mmHg 75%
    03:00 +7°C° 0.1 mm 2 m/S 760 mmHg 78%
    04:00 +7°C° 0.1 mm 2 m/S 760 mmHg 81%
    05:00 +6°C° 0.1 mm 2 m/S 760 mmHg 84%
    06:00 +7°C° 0 mm 2 m/S 760 mmHg 81%
    07:00 +8°C° 0 mm 2 m/S 760 mmHg 77%
    08:00 +8°C° 0 mm 2 m/S 760 mmHg 73%
    09:00 +10°C° 0 mm 3 m/S 760 mmHg 64%
    10:00 +11°C° 0 mm 3 m/S 759 mmHg 55%
    11:00 +12°C° 0 mm 3 m/S 759 mmHg 46%
    12:00 +12°C° 0 mm 4 m/S 759 mmHg 43%
    13:00 +12°C° 0 mm 4 m/S 759 mmHg 41%
    14:00 +12°C° 0 mm 4 m/S 759 mmHg 38%
    15:00 +12°C° 0 mm 3 m/S 758 mmHg 40%
    16:00 +12°C° 0 mm 3 m/S 758 mmHg 42%
    17:00 +11°C° 0 mm 3 m/S 758 mmHg 43%
    18:00 +10°C° 0 mm 3 m/S 758 mmHg 50%
    19:00 +8°C° 0 mm 2 m/S 759 mmHg 56%
    20:00 +6°C° 0 mm 2 m/S 759 mmHg 63%
    21:00 +6°C° 0 mm 2 m/S 759 mmHg 67%
    22:00 +5°C° 0 mm 2 m/S 759 mmHg 70%
    23:00 +4°C° 0 mm 2 m/S 759 mmHg 74%

    übermorgen, 21 April, Sonntag

    Zeit Temperatur Niederschläge Wind Luftdruck Luftfeuchtigkeit
    00:00 +4°C° 0 mm 2 m/S 759 mmHg 76%
    01:00 +3°C° 0 mm 2 m/S 759 mmHg 79%
    02:00 +4°C° 0 mm 1 m/S 759 mmHg 81%
    03:00 +2°C° 0 mm 2 m/S 760 mmHg 85%
    04:00 +2°C° 0 mm 2 m/S 760 mmHg 88%
    05:00 +2°C° 0 mm 2 m/S 760 mmHg 92%
    06:00 +4°C° 0 mm 2 m/S 760 mmHg 85%
    07:00 +6°C° 0 mm 2 m/S 760 mmHg 79%
    08:00 +8°C° 0 mm 2 m/S 760 mmHg 72%
    09:00 +10°C° 0 mm 2 m/S 760 mmHg 63%
    10:00 +12°C° 0 mm 2 m/S 760 mmHg 54%
    11:00 +14°C° 0 mm 2 m/S 760 mmHg 45%
    12:00 +15°C° 0 mm 2 m/S 760 mmHg 43%
    13:00 +16°C° 0 mm 2 m/S 760 mmHg 40%
    14:00 +16°C° 0 mm 2 m/S 760 mmHg 38%
    15:00 +16°C° 0 mm 2 m/S 760 mmHg 40%
    16:00 +16°C° 0 mm 2 m/S 760 mmHg 42%
    17:00 +16°C° 0 mm 2 m/S 760 mmHg 44%
    18:00 +14°C° 0 mm 2 m/S 760 mmHg 52%
    19:00 +12°C° 0 mm 2 m/S 760 mmHg 61%
    20:00 +9°C° 0 mm 2 m/S 761 mmHg 70%
    21:00 +9°C° 0 mm 2 m/S 761 mmHg 74%
    22:00 +9°C° 0 mm 1 m/S 761 mmHg 78%
    23:00 +8°C° 0 mm 1 m/S 762 mmHg 82%

    22 April, Montag

    Zeit Temperatur Niederschläge Wind Luftdruck Luftfeuchtigkeit
    00:00 +8°C° 0 mm 1 m/S 762 mmHg 85%
    01:00 +8°C° 0 mm 1 m/S 762 mmHg 87%
    02:00 +7°C° 0 mm 1 m/S 762 mmHg 90%
    03:00 +7°C° 0 mm 1 m/S 763 mmHg 90%
    04:00 +7°C° 0 mm 1 m/S 763 mmHg 91%
    05:00 +6°C° 0 mm 1 m/S 763 mmHg 92%
    06:00 +8°C° 0 mm 1 m/S 763 mmHg 82%
    07:00 +10°C° 0 mm 1 m/S 763 mmHg 72%
    08:00 +12°C° 0 mm 1 m/S 764 mmHg 62%
    09:00 +14°C° 0 mm 1 m/S 764 mmHg 56%
    10:00 +16°C° 0 mm 1 m/S 764 mmHg 50%
    11:00 +18°C° 0 mm 1 m/S 764 mmHg 43%
    12:00 +18°C° 0 mm 1 m/S 764 mmHg 42%
    13:00 +19°C° 0 mm 1 m/S 764 mmHg 41%
    14:00 +19°C° 0 mm 1 m/S 763 mmHg 40%
    15:00 +18°C° 0 mm 1 m/S 763 mmHg 42%
    16:00 +18°C° 0 mm 1 m/S 763 mmHg 44%
    17:00 +16°C° 0 mm 1 m/S 763 mmHg 47%
    18:00 +14°C° 0 mm 1 m/S 763 mmHg 51%
    19:00 +13°C° 0 mm 1 m/S 763 mmHg 55%
    20:00 +11°C° 0 mm 1 m/S 764 mmHg 59%
    21:00 +11°C° 0 mm 1 m/S 764 mmHg 60%
    22:00 +10°C° 0 mm 1 m/S 764 mmHg 61%
    23:00 +10°C° 0 mm 1 m/S 764 mmHg 62%

    23 April, Dienstag

    Zeit Temperatur Niederschläge Wind Luftdruck Luftfeuchtigkeit
    00:00 +10°C° 0 mm 1 m/S 765 mmHg 62%
    01:00 +9°C° 0 mm 1 m/S 765 mmHg 63%
    02:00 +9°C° 0 mm 1 m/S 765 mmHg 63%
    03:00 +9°C° 0 mm 1 m/S 765 mmHg 64%
    04:00 +9°C° 0 mm 1 m/S 766 mmHg 65%
    05:00 +8°C° 0 mm 1 m/S 766 mmHg 66%
    06:00 +10°C° 0 mm 1 m/S 766 mmHg 61%
    07:00 +12°C° 0 mm 1 m/S 766 mmHg 55%
    08:00 +14°C° 0 mm 1 m/S 766 mmHg 50%
    09:00 +15°C° 0 mm 1 m/S 766 mmHg 45%
    10:00 +18°C° 0 mm 1 m/S 766 mmHg 40%
    11:00 +19°C° 0 mm 1 m/S 766 mmHg 36%
    12:00 +20°C° 0 mm 1 m/S 765 mmHg 35%
    13:00 +20°C° 0 mm 1 m/S 765 mmHg 35%
    14:00 +20°C° 0 mm 1 m/S 765 mmHg 34%
    15:00 +18°C° 0 mm 2 m/S 764 mmHg 35%
    16:00 +18°C° 0 mm 2 m/S 764 mmHg 37%
    17:00 +18°C° 0 mm 2 m/S 764 mmHg 38%
    18:00 +16°C° 0 mm 1 m/S 764 mmHg 44%
    19:00 +14°C° 0 mm 1 m/S 764 mmHg 50%
    20:00 +12°C° 0 mm 1 m/S 764 mmHg 56%
    21:00 +12°C° 0 mm 1 m/S 764 mmHg 59%
    22:00 +11°C° 0 mm 1 m/S 764 mmHg 62%
    23:00 +10°C° 0 mm 1 m/S 765 mmHg 65%

    24 April, Mittwoch

    Zeit Temperatur Niederschläge Wind Luftdruck Luftfeuchtigkeit
    00:00 +10°C° 0 mm 1 m/S 765 mmHg 67%
    01:00 +9°C° 0 mm 1 m/S 765 mmHg 69%
    02:00 +9°C° 0 mm 1 m/S 765 mmHg 70%
    03:00 +9°C° 0 mm 1 m/S 765 mmHg 72%
    04:00 +8°C° 0 mm 1 m/S 765 mmHg 73%
    05:00 +8°C° 0 mm 1 m/S 765 mmHg 74%
    06:00 +10°C° 0 mm 1 m/S 765 mmHg 68%
    07:00 +12°C° 0 mm 2 m/S 765 mmHg 62%
    08:00 +14°C° 0 mm 2 m/S 765 mmHg 55%
    09:00 +15°C° 0 mm 2 m/S 765 mmHg 50%
    10:00 +17°C° 0 mm 2 m/S 765 mmHg 45%
    11:00 +18°C° 0 mm 3 m/S 764 mmHg 40%
    12:00 +18°C° 0 mm 3 m/S 764 mmHg 38%
    13:00 +19°C° 0 mm 3 m/S 764 mmHg 37%
    14:00 +19°C° 0 mm 3 m/S 764 mmHg 36%
    15:00 +19°C° 0 mm 3 m/S 763 mmHg 38%
    16:00 +19°C° 0 mm 3 m/S 763 mmHg 39%
    17:00 +19°C° 0 mm 3 m/S 763 mmHg 40%
    18:00 +17°C° 0 mm 2 m/S 763 mmHg 48%
    19:00 +15°C° 0 mm 2 m/S 763 mmHg 55%
    20:00 +13°C° 0 mm 1 m/S 763 mmHg 62%
    21:00 +12°C° 0 mm 1 m/S 763 mmHg 65%
    22:00 +12°C° 0 mm 1 m/S 763 mmHg 68%
    23:00 +11°C° 0 mm 1 m/S 763 mmHg 71%
    Mehr zeigen